Location: Colonia Mina de C?rbuni
(46.1667°N, 22.7167°E)
Time: 21:39:46
(UTC+00:00)

Tiros 1 - Pass Details

Date: 24 April 2024
Orbit: 624 x 657 km, 48.4° (Epoch: 20 May)

Event Time Altitude Azimuth Distance (km) Brightness Sun altitude
Rises 19:22:35 0° 190° (S) 2,941 - -17.6°
Reaches altitude 10° 19:25:58 10° 165° (SSE) 2,028 - -18.0°
Maximum altitude 19:28:20 14° 134° (SE) 1,778 - -18.3°
Drops below altitude 10° 19:30:42 10° 104° (ESE) 2,023 - -18.6°
Sets 19:34:02 0° 79° (E) 2,928 - -19.0°
